EN

Hourly Weather Dzierzyslaw

Today, 31 October, Saturday

Time Temperature Precipitation Wind Pressure Humidity
00:00 +11°C° 0.3 mm 4 mps 740 mmHg 92%
01:00 +12°C° 0 mm 3 mps 740 mmHg 92%
02:00 +11°C° 0.7 mm 3 mps 740 mmHg 93%
03:00 +11°C° 0.7 mm 3 mps 740 mmHg 94%
04:00 +11°C° 0.7 mm 3 mps 740 mmHg 95%
05:00 +11°C° 1.1 mm 3 mps 741 mmHg 95%
06:00 +11°C° 1.1 mm 3 mps 741 mmHg 96%
07:00 +12°C° 1.1 mm 2 mps 741 mmHg 96%
08:00 +10°C° 0.4 mm 2 mps 742 mmHg 95%
09:00 +10°C° 0.4 mm 2 mps 742 mmHg 95%
10:00 +11°C° 0.4 mm 1 mps 743 mmHg 94%
11:00 +11°C° 0.1 mm 1 mps 743 mmHg 91%
12:00 +11°C° 0.1 mm 1 mps 743 mmHg 88%
13:00 +12°C° 0.1 mm 1 mps 743 mmHg 84%
14:00 +11°C° 0 mm 1 mps 743 mmHg 84%
15:00 +10°C° 0 mm 0 mps 743 mmHg 84%
16:00 +10°C° 0 mm 0 mps 743 mmHg 84%
17:00 +9°C° 0 mm 0 mps 743 mmHg 86%
18:00 +10°C° 0 mm 1 mps 743 mmHg 88%
19:00 +9°C° 0 mm 1 mps 743 mmHg 89%
20:00 +9°C° 0 mm 1 mps 743 mmHg 89%
21:00 +8°C° 0 mm 1 mps 744 mmHg 89%
22:00 +8°C° 0 mm 1 mps 744 mmHg 89%
23:00 +8°C° 0 mm 1 mps 743 mmHg 89%

Tomorrow, 1 November, Sunday

Time Temperature Precipitation Wind Pressure Humidity
00:00 +7°C° 0 mm 2 mps 743 mmHg 89%
01:00 +6°C° 0 mm 2 mps 743 mmHg 89%
02:00 +6°C° 0 mm 2 mps 743 mmHg 88%
03:00 +5°C° 0 mm 3 mps 743 mmHg 87%
04:00 +5°C° 0 mm 3 mps 742 mmHg 87%
05:00 +7°C° 0 mm 3 mps 742 mmHg 88%
06:00 +6°C° 0 mm 4 mps 742 mmHg 89%
07:00 +6°C° 0 mm 4 mps 742 mmHg 90%
08:00 +7°C° 0 mm 4 mps 742 mmHg 87%
09:00 +8°C° 0 mm 4 mps 742 mmHg 83%
10:00 +9°C° 0 mm 5 mps 741 mmHg 80%
11:00 +10°C° 0 mm 5 mps 741 mmHg 79%
12:00 +10°C° 0 mm 5 mps 741 mmHg 78%
13:00 +12°C° 0 mm 5 mps 740 mmHg 76%
14:00 +10°C° 0.2 mm 5 mps 740 mmHg 80%
15:00 +10°C° 0.2 mm 5 mps 740 mmHg 83%
16:00 +9°C° 0.2 mm 5 mps 739 mmHg 87%
17:00 +9°C° 0.9 mm 5 mps 739 mmHg 88%
18:00 +9°C° 0.9 mm 5 mps 739 mmHg 90%
19:00 +9°C° 0.9 mm 5 mps 739 mmHg 91%
20:00 +9°C° 0.2 mm 5 mps 739 mmHg 91%
21:00 +10°C° 0.2 mm 4 mps 739 mmHg 91%
22:00 +10°C° 0.2 mm 4 mps 738 mmHg 91%
23:00 +10°C° 0.3 mm 4 mps 738 mmHg 91%

Day after tomorrow, 2 November, Monday

Time Temperature Precipitation Wind Pressure Humidity
00:00 +10°C° 0.3 mm 5 mps 738 mmHg 91%
01:00 +10°C° 0.3 mm 5 mps 738 mmHg 92%
02:00 +11°C° 0.1 mm 4 mps 738 mmHg 91%
03:00 +12°C° 0.1 mm 4 mps 738 mmHg 91%
04:00 +12°C° 0.1 mm 3 mps 738 mmHg 91%
05:00 +12°C° 0.1 mm 3 mps 738 mmHg 91%
06:00 +12°C° 0.1 mm 3 mps 738 mmHg 91%
07:00 +12°C° 0.1 mm 3 mps 739 mmHg 91%
08:00 +13°C° 0.1 mm 3 mps 739 mmHg 92%
09:00 +13°C° 0.1 mm 3 mps 739 mmHg 92%
10:00 +13°C° 0.1 mm 3 mps 739 mmHg 92%
11:00 +13°C° 0.1 mm 3 mps 739 mmHg 91%
12:00 +13°C° 0.1 mm 3 mps 739 mmHg 90%
13:00 +14°C° 0.1 mm 3 mps 739 mmHg 89%
14:00 +14°C° 0.1 mm 3 mps 739 mmHg 90%
15:00 +14°C° 0.1 mm 3 mps 739 mmHg 90%
16:00 +14°C° 0.1 mm 3 mps 739 mmHg 91%
17:00 +14°C° 0 mm 3 mps 739 mmHg 91%
18:00 +13°C° 0 mm 3 mps 740 mmHg 92%
19:00 +13°C° 0 mm 3 mps 740 mmHg 93%
20:00 +13°C° 0 mm 3 mps 740 mmHg 92%
21:00 +13°C° 0 mm 3 mps 740 mmHg 92%
22:00 +13°C° 0 mm 3 mps 740 mmHg 92%
23:00 +13°C° 0 mm 3 mps 740 mmHg 92%

3 November, Tuesday

Time Temperature Precipitation Wind Pressure Humidity
00:00 +13°C° 0 mm 3 mps 740 mmHg 93%
01:00 +13°C° 0 mm 3 mps 740 mmHg 93%
02:00 +13°C° 0 mm 3 mps 740 mmHg 93%
03:00 +13°C° 0 mm 3 mps 740 mmHg 93%
04:00 +13°C° 0 mm 3 mps 741 mmHg 93%
05:00 +13°C° 0 mm 3 mps 741 mmHg 92%
06:00 +13°C° 0 mm 3 mps 741 mmHg 92%
07:00 +13°C° 0 mm 3 mps 741 mmHg 92%
08:00 +14°C° 0 mm 2 mps 742 mmHg 90%
09:00 +15°C° 0 mm 2 mps 742 mmHg 89%
10:00 +16°C° 0 mm 2 mps 742 mmHg 87%
11:00 +14°C° 0.2 mm 3 mps 743 mmHg 88%
12:00 +13°C° 0.2 mm 3 mps 743 mmHg 89%
13:00 +12°C° 0.2 mm 4 mps 743 mmHg 90%
14:00 +12°C° 0.4 mm 3 mps 744 mmHg 90%
15:00 +12°C° 0.4 mm 2 mps 744 mmHg 89%
16:00 +12°C° 0.4 mm 2 mps 744 mmHg 89%
17:00 +12°C° 0.2 mm 1 mps 745 mmHg 87%
18:00 +12°C° 0.2 mm 1 mps 745 mmHg 86%
19:00 +12°C° 0.2 mm 1 mps 746 mmHg 85%
20:00 +11°C° 0.2 mm 1 mps 746 mmHg 85%
21:00 +11°C° 0.2 mm 1 mps 746 mmHg 85%
22:00 +11°C° 0.2 mm 1 mps 747 mmHg 85%
23:00 +10°C° 0.6 mm 1 mps 747 mmHg 86%

4 November, Wednesday

Time Temperature Precipitation Wind Pressure Humidity
00:00 +10°C° 0.6 mm 1 mps 747 mmHg 87%
01:00 +10°C° 0.6 mm 1 mps 747 mmHg 88%
02:00 +10°C° 0.3 mm 1 mps 747 mmHg 89%
03:00 +10°C° 0.3 mm 1 mps 747 mmHg 89%
04:00 +9°C° 0.3 mm 1 mps 747 mmHg 89%
05:00 +9°C° 0.1 mm 1 mps 747 mmHg 88%
06:00 +9°C° 0.1 mm 1 mps 748 mmHg 88%
07:00 +9°C° 0.1 mm 1 mps 748 mmHg 87%
08:00 +9°C° 0 mm 1 mps 748 mmHg 83%
09:00 +9°C° 0 mm 2 mps 748 mmHg 78%
10:00 +9°C° 0 mm 2 mps 748 mmHg 73%
11:00 +10°C° 0 mm 2 mps 748 mmHg 71%
12:00 +10°C° 0 mm 2 mps 748 mmHg 70%
13:00 +10°C° 0 mm 2 mps 748 mmHg 68%
14:00 +10°C° 0 mm 2 mps 747 mmHg 70%
15:00 +9°C° 0 mm 2 mps 747 mmHg 71%
16:00 +9°C° 0 mm 2 mps 747 mmHg 73%
17:00 +9°C° 0 mm 2 mps 747 mmHg 75%
18:00 +8°C° 0 mm 2 mps 748 mmHg 77%
19:00 +8°C° 0 mm 3 mps 748 mmHg 78%
20:00 +8°C° 0 mm 3 mps 748 mmHg 80%
21:00 +8°C° 0 mm 3 mps 748 mmHg 82%
22:00 +8°C° 0 mm 3 mps 748 mmHg 83%
23:00 +8°C° 0.3 mm 3 mps 748 mmHg 85%

5 November, Thursday

Time Temperature Precipitation Wind Pressure Humidity
00:00 +7°C° 0.3 mm 3 mps 748 mmHg 87%
01:00 +7°C° 0.3 mm 3 mps 748 mmHg 88%
02:00 +7°C° 0.3 mm 3 mps 748 mmHg 89%
03:00 +7°C° 0.3 mm 3 mps 748 mmHg 89%
04:00 +7°C° 0.3 mm 3 mps 748 mmHg 90%
05:00 +7°C° 0.1 mm 3 mps 748 mmHg 89%
06:00 +7°C° 0.1 mm 3 mps 749 mmHg 89%
07:00 +6°C° 0.1 mm 4 mps 749 mmHg 88%
08:00 +6°C° 0.1 mm 4 mps 749 mmHg 87%
09:00 +6°C° 0.1 mm 4 mps 749 mmHg 87%
10:00 +6°C° 0.1 mm 4 mps 749 mmHg 86%
11:00 +6°C° 0.1 mm 4 mps 750 mmHg 84%
12:00 +6°C° 0.1 mm 5 mps 750 mmHg 82%
13:00 +6°C° 0.1 mm 5 mps 750 mmHg 80%
14:00 +6°C° 0.1 mm 4 mps 750 mmHg 80%
15:00 +6°C° 0.1 mm 4 mps 750 mmHg 80%
16:00 +5°C° 0.1 mm 3 mps 751 mmHg 81%
17:00 +5°C° 0.1 mm 3 mps 751 mmHg 83%
18:00 +5°C° 0.1 mm 3 mps 751 mmHg 84%
19:00 +5°C° 0.1 mm 2 mps 752 mmHg 86%
20:00 +5°C° 0 mm 2 mps 752 mmHg 88%
21:00 +4°C° 0 mm 2 mps 752 mmHg 89%
22:00 +4°C° 0 mm 2 mps 753 mmHg 91%
23:00 +3°C° 0 mm 2 mps 753 mmHg 91%
Show more